This is the latest recevied weather packets stored in our database for station/object W4FXD. If no packets are shown the sender has not sent any weather packets the latest 10 day(s).
| Time | Temp. | Humidity | Pressure | Rain* | Wind** | Luminosity | Snow |
|---|---|---|---|---|---|---|---|
| 1777488578 | 21.67° C | 87% | 1011.6 hPa | 0 mm | - | 222 W/m² | - |
| 1777488276 | 21.11° C | 87% | 1011.6 hPa | 0 mm | - | 325 W/m² | - |
| 1777487974 | 21.11° C | 87% | 1011.5 hPa | 0 mm | - | 409 W/m² | - |
| 1777487672 | 21.11° C | 87% | 1011.9 hPa | 0 mm | - | 186 W/m² | - |
| 1777487368 | 21.11° C | 87% | 1011.7 hPa | 0 mm | - | 747 W/m² | - |
| 1777487067 | 21.11° C | 88% | 1011.9 hPa | 0 mm | - | 343 W/m² | - |
| 1777486762 | 20.56° C | 88% | 1012 hPa | 0 mm | - | 633 W/m² | - |
| 1777486460 | 20.56° C | 89% | 1011.9 hPa | 0 mm | - | 712 W/m² | - |
| 1777486157 | 20° C | 90% | 1012 hPa | 0 mm | - | 363 W/m² | - |
| 1777485855 | 20.56° C | 89% | 1012 hPa | 0 mm | - | 248 W/m² | - |
| 1777485555 | 20° C | 89% | 1012.1 hPa | 0 mm | - | 324 W/m² | - |
| 1777485251 | 20° C | 90% | 1012.1 hPa | 0 mm | - | 167 W/m² | - |
| 1777484948 | 20° C | 89% | 1012.1 hPa | 0 mm | - | 224 W/m² | - |
| 1777484645 | 20.56° C | 89% | 1012.1 hPa | 0 mm | - | 150 W/m² | - |
| 1777484341 | 20.56° C | 88% | 1012 hPa | 0 mm | - | 200 W/m² | - |
| 1777484037 | 20° C | 89% | 1012.2 hPa | 0 mm | - | 209 W/m² | - |
| 1777483734 | 20.56° C | 89% | 1012.2 hPa | 0 mm | - | 115 W/m² | - |
| 1777483430 | 20.56° C | 89% | 1012.2 hPa | 0 mm | - | 265 W/m² | - |
| 1777483125 | 20° C | 90% | 1012 hPa | 0 mm | - | 231 W/m² | - |
| 1777482822 | 20° C | 90% | 1012.4 hPa | 0 mm | - | 235 W/m² | - |
| 1777482518 | 20° C | 90% | 1012.2 hPa | 0 mm | - | 256 W/m² | - |
| 1777482216 | 19.44° C | 90% | 1012.2 hPa | 0 mm | - | 288 W/m² | - |
| 1777481913 | 19.44° C | 90% | 1012.6 hPa | 0 mm | - | 173 W/m² | - |
| 1777481611 | 19.44° C | 90% | 1012.8 hPa | 0 mm | - | 154 W/m² | - |
| 1777481307 | 19.44° C | 90% | 1012.6 hPa | 0 mm | - | 148 W/m² | - |
* Rain latest hour (hover to see other rain measurements)
** Current wind speed in m/s (hover to see current wind gust speed)